Regional Weather Roundup
Issued by NWS Upton, NY

Current Version | Previous Version | Graphics & Text | Print | Product List | Glossary Off
Versions: 1 2 3 4 5 6 7 8 9 10 11 12 13 14 15 16 17 18 19 20 21 22 23 24 25 26 27

000
ASUS41 KOKX 311404
RWROKX

REGIONAL WEATHER ROUNDUP
NATIONAL WEATHER SERVICE NEW YORK NY
1000 AM EDT TUE MAY 31 2016

NOTE: "FAIR" INDICATES FEW OR NO CLOUDS BELOW 12,000 FEET WITH NO
SIGNIFICANT WEATHER AND/OR OBSTRUCTIONS TO VISIBILITY.

NYZ071-072-176-178-NJZ106-104-311500-
NEW YORK CITY METRO AREA


CITY           SKY/WX    TMP DP  RH WIND       PRES   REMARKS
CENTRAL PARK   CLOUDY    76  61  59 NE6       30.00R
LAGUARDIA APRT PTSUNNY   75  65  70 NE7       29.97R
KENNEDY INTL   PTSUNNY   71  68  90 S6        29.98S
NEWARK/LIBERTY PTSUNNY   78  66  66 NE7       29.96S
BRNX BOT. GARD   N/A     75  59  57 NE7       29.99S
TETERBORO      CLOUDY    78  61  55 NE7       29.96R
$$

NYZ177-179-078>081-311500-
LONG ISLAND NEW YORK

CITY           SKY/WX    TMP DP  RH WIND       PRES   REMARKS
FARMINGDALE    CLOUDY    72  67  84 CALM      29.98S
ISLIP          NOT AVBL
SHIRLEY        PTSUNNY   72  67  84 SW6       29.99R
RIVERHEAD        N/A     75  72  88 CALM      29.96F
WESTHAMPTON    FOG       66  64  93 S6        30.00S VSB 1
EAST HAMPTON   CLOUDY    66  65  95 SW6       29.98S
MONTAUK POINT    N/A     67  65  93 S5        29.99S
$$

NYZ052-065-067-311500-
HUDSON VALLEY

CITY           SKY/WX    TMP DP  RH WIND       PRES   REMARKS
WHITE PLAINS   CLOUDY    75  59  57 N7        29.98S
NEWBURGH       MOSUNNY   75  61  60 CALM      29.99F
MONTGOMERY     SUNNY     77  62  59 CALM      29.98S
POUGHKEEPSIE   MOSUNNY   77  60  55 VRB6      29.97S
ALBANY         MOSUNNY   74  51  44 NW9       29.97F
$$

NJZ001-105-106-008-010-013-015-019>022-104-311500-
NEW JERSEY

CITY           SKY/WX    TMP DP  RH WIND       PRES   REMARKS
NEWARK/LIBERTY PTSUNNY   78  66  66 NE7       29.96S
TETERBORO      CLOUDY    78  61  55 NE7       29.96R
CALDWELL       PTSUNNY   77  63  61 VRB5      29.98R
MORRISTOWN     PTSUNNY   77  66  69 NE7       29.98R
SOMERVILLE     SUNNY     81  61  50 N9G16     29.96R
SUSSEX         MOSUNNY   77  53  43 N8        30.00R
ANDOVER          N/A     76  57  51 VRB5      30.00S
TRENTON        SUNNY     79  64  60 NE9       29.96S
MILLVILLE      PTSUNNY   76  68  76 CALM      29.98R
ATLANTIC CITY  CLOUDY    73  69  87 NW3       29.97F
WRIGHTSTOWN    NOT AVBL
TOMS RIVER     CLOUDY    73  64  73 NW3       29.97F
BELMAR         CLOUDY    74  68  81 NW3       29.98S
$$

PAZ047>061-062-071-311500-
EASTERN PENNSYLVANIA

CITY           SKY/WX    TMP DP  RH WIND       PRES   REMARKS
PHILADELPHIA   MOSUNNY   79  67  66 SE5       29.97S
ALLENTOWN      SUNNY     78  56  46 N8        29.99S
SCRANTON       SUNNY     69  63  81 W5        30.03R
$$

CTZ002-004>006-009-010-012-RIZ004-006-007-MAZ004-011-015-311500-
SOUTHERN NEW ENGLAND
 IN CT

CITY           SKY/WX    TMP DP  RH WIND       PRES   REMARKS
BRADLEY INTL   CLOUDY    77  54  44 NW6       29.95F
HARTFORD       SUNNY     79  56  45 N10       29.96S
DANBURY        CLOUDY    75  53  46 N10       30.00R
WTRBRY/OXFORD  PTSUNNY   73  52  46 N12G17    30.00S
BRIDGEPORT     CLOUDY    74  67  78 SW8       29.97S
MERIDEN        PTSUNNY   79  54  41 N9        29.97R
NEW HAVEN      PTSUNNY   73  67  81 S7        29.97S
CHESTER          N/A     77  57  50 N8G15     29.98S
GROTON         FOG       66  66 100 S9        29.96S VSB 1
WILLIMANTIC    CLOUDY    80  56  43 VRB6      29.96S

 IN RI

CITY           SKY/WX    TMP DP  RH WIND       PRES   REMARKS
PROVIDENCE     PTSUNNY   73  66  78 SE7       29.96S
BLOCK ISLAND   FOG       62  61  96 SW15      29.98S VSB 1
WESTERLY       CLOUDY    64  60  87 S7        29.98S FOG

 IN MA

CITY           SKY/WX    TMP DP  RH WIND       PRES   REMARKS
BOSTON         CLOUDY    78  56  46 W15       29.92S
WORCESTER      CLOUDY    74  49  41 NW14G22   29.97S
WESTFIELD      CLOUDY    75  54  47 NW6       29.95F
PROVINCETOWN   CLOUDY    65  63  93 S14       29.94F FOG
NANTUCKET      CLOUDY    65  62  90 SW16      29.98F
$$

ANZ330-335-338-340-345-350-353-355-311500-
COASTAL MARINE OBSERVATIONS


STATION/POSITION TIME  SKY/WX   TEMP    WIND        PRES    VSBY  WAVE
                                AIR SEA DIR/SP/G                  HT/PER
                 (UTC)          (F)     (DEG/KT/KT) (MB)    (MI)  (FT/S)
NY HARB ENTRANCE 1250            60 58  170/  4/  6 1014.7          3/ 7
20S FIRE ISLAND  1250            62 61  190/  8/  8 1014.9          4/ 7
GREAT SOUTH BAY  1330            65 70  230/  8/ 10   N/A
23 SSW MONTAUK P 1350            62 58  230/ 10/ 14 1015.0          4/ 7
15 E BARNEGAT LI 1322               62                N/A           4/ 8
HUDSON CANYON    1250            63 60              1015.1          4/ 7
KINGS POINT      1300            71 59              1014.6
EXECUTION ROCKS  NOT AVBL
CENTRAL LI SOUND 1300            65     290/  4/  6   N/A           0
EASTERN LI SOUND 1300            58 55  160/  4/  6   N/A
ROBBINS REEF     1300            70     170/  6/  6 1013.9
$$


>>>>>>>>>>>>>>>>>>>>>>>>>>>> KEY <<<<<<<<<<<<<<<<<<<<<<<<<<<
>                                                          <
>     SKY/WX - SKY CONDITION/PRESENT WEATHER               <
>     TMP    - TEMPERATURE IN FAHRENHEIT                   <
>     DP     - DEWPOINT IN FAHRENHEIT                      <
>     RH     - RELATIVE HUMIDITY IN PERCENT                <
>     WIND   - DIRECTION AND SPEED IN MPH                  <
>     PRES   - MEAN SEA LEVEL PRESSURE IN INCHES OF HG     <
>     WCI    - WIND CHILL INDEX                            <
>     VSB    - VISIBILITY IN MILES                         <
>     HX     - HEAT INDEX                                  <
>     TC     - TEMPERATURE IN CELSIUS                      <
>     VRB    - VARIABLE WIND DIRECTION                     <
>                                                          <
>>>>>>>>>>>>>>>>>>>>>>>>>>>> KEY <<<<<<<<<<<<<<<<<<<<<<<<<<<






USA.gov is the U.S. government's official web portal to all federal, state and local government web resources and services.